CAPE
3 1 0 0 0 0 0 0 0 0 0 0 0 0 0 0 0 0 0 0 15 1313 849 537 205 384 143 424 600 466 123 456 497 446 506 373 193 107 21 16 15 17 11 18 63
1 2 1 0 0 0 0 0 0 0 0 0 0 0 0 0 0 0 0 258 768 1338 105 10 0 11 67 3 40 160 9 20 369 481 662 419 233 158 83 60 21 53 43 54 113
3 2 0 0 0 0 0 0 0 0 0 0 0 0 0 0 0 0 398 914 882 1059 0 0 0 0 0 0 0 1 0 1 413 573 618 455 371 235 116 77 25 53 20 73 142
1 1 0 0 0 0 0 0 0 0 0 0 0 0 0 0 0 0 54 1000 1194 378 0 0 0 0 0 0 0 0 48 370 776 694 545 485 455 279 183 195 80 83 66 81 116
1 0 0 0 0 0 0 0 0 0 0 0 0 0 0 0 0 3 344 520 217 0 0 0 0 0 0 0 0 78 586 755 709 665 625 542 454 382 44 49 99 4 36 95 121
1 0 0 0 0 0 0 0 0 0 0 0 0 0 0 0 0 0 0 0 0 0 0 0 0 0 0 9 137 703 863 809 798 777 638 535 413 220 1 11 44 23 49 57 33
1 0 0 0 0 0 0 0 0 0 0 0 0 0 0 0 0 0 0 0 0 0 0 0 0 0 0 254 486 847 1009 926 890 831 710 579 252 208 5 18 17 43 13 15 5
0 0 0 0 0 0 0 0 0 0 0 0 0 0 0 0 0 0 0 0 0 0 0 0 0 0 0 7 14 542 731 773 846 880 745 238 109 300 73 4 5 8 6 4 26
0 0 0 0 0 0 0 0 0 0 0 0 0 0 0 0 0 0 0 0 0 0 0 0 0 0 0 191 308 73 210 284 552 895 695 478 240 469 184 196 146 72 17 41 66
0 0 0 0 0 0 0 0 0 0 0 0 0 0 0 0 0 0 0 0 0 0 0 0 0 0 0 46 104 199 71 13 235 658 625 588 382 532 350 223 203 146 114 102 27
0 0 0 0 0 0 0 0 0 0 0 0 0 0 0 0 0 0 0 0 0 0 0 0 0 0 0 0 0 45 18 16 9 30 606 534 465 722 476 306 280 211 174 138 65
0 0 0 0 0 0 0 0 0 0 0 0 0 0 0 0 0 0 0 0 0 0 0 0 0 0 0 0 0 0 0 6 0 107 372 296 482 693 633 348 207 152 179 194 125
0 0 0 0 0 0 0 0 0 0 0 0 0 0 0 0 0 0 0 0 0 0 0 0 0 0 0 0 0 0 0 1 1 17 114 320 343 801 763 508 398 306 182 257 288
0 0 0 0 0 0 0 0 0 0 0 0 0 0 0 0 0 0 0 0 0 0 0 0 0 0 0 0 0 0 0 0 13 38 19 198 107 177 772 771 510 462 360 236 229
0 0 0 0 0 0 0 0 0 0 0 0 0 0 0 0 0 0 0 0 0 0 0 0 0 0 0 0 0 0 0 0 3 29 3 142 64 105 349 807 541 462 449 350 175
0 0 2 0 0 0 0 0 0 0 0 0 0 0 0 0 0 0 0 0 0 0 0 0 0 0 0 0 0 5 0 0 0 1 40 48 40 83 376 500 632 339 447 450 339
0 0 0 0 0 0 0 0 0 0 0 0 0 0 0 0 0 0 0 0 0 0 0 0 0 0 0 0 0 0 12 13 22 21 40 0 47 75 52 234 412 522 468 511 480
0 0 0 0 0 0 0 0 0 0 0 0 0 0 0 0 0 0 0 0 0 0 0 0 0 0 0 0 0 0 0 0 0 19 24 0 0 2 0 0 120 447 431 495 537
0 0 0 0 0 0 0 0 0 0 0 0 0 0 0 0 0 0 0 0 0 0 0 0 0 0 0 0 0 0 0 0 0 0 1 0 0 0 1 0 13 358 383 543 594
0 0 0 0 0 0 0 0 0 0 0 0 0 0 0 0 0 0 0 0 0 0 0 0 0 0 0 0 0 0 0 0 0 5 0 0 0 0 0 0 175 328 371 511 598
0 0 0 0 0 0 0 0 0 0 0 0 0 0 0 0 0 0 0 0 0 0 0 0 0 0 0 0 0 0 0 0 0 0 0 0 0 0 0 8 180 267 302 491 579
0 0 0 0 0 0 0 0 0 0 0 0 0 0 0 0 0 0 0 0 0 0 0 0 0 0 0 0 0 0 0 0 0 0 0 0 0 0 0 0 1 161 257 356 433
0 0 0 0 0 0 0 0 0 0 0 0 0 0 0 0 0 0 0 0 0 0 0 0 0 0 0 0 0 0 0 0 0 0 0 0 0 0 0 0 0 22 73 331 389
0 0 0 0 0 0 0 0 0 0 0 0 0 0 0 0 0 0 0 0 0 0 0 0 0 0 0 0 0 0 0 0 0 0 0 0 0 0 0 5 10 5 7 194 393
0 0 5 0 0 0 0 0 0 1 2 0 0 0 0 0 0 0 0 0 0 0 0 0 0 0 0 0 0 0 0 0 0 0 0 0 0 0 0 0 55 60 65 68 182
1 1 0 0 0 2 1 14 22 30 11 2 5 0 0 0 0 0 0 0 0 0 0 0 0 0 0 0 0 0 0 0 0 0 0 0 0 0 0 0 0 36 106 173 536
0 0 5 0 0 3 7 23 25 1 4 19 7 12 0 0 0 0 0 0 0 0 0 0 0 0 0 0 0 0 0 0 0 0 0 0 0 0 0 0 0 0 81 287 329
CIN
-0 -0 -0 -0 -0 -0 -0 -0 -0 -0 -0 -0 -0 -0 -0 -0 -0 -0 -0 -0 -240 -520 -518 -480 -496 -375 -408 -259 -201 -173 -69 -20 -24 -17 -25 -68 -59 -94 -76 -75 -15 -55 -82 -72 -75
-0 -0 -0 -0 -0 -0 -0 -0 -0 -0 -0 -0 -0 -0 -0 -0 -0 -0 -0 -730 -697 -532 -472 -429 -0 -145 -131 -98 -148 -136 -62 -22 -31 -26 -44 -63 -57 -100 -102 -88 -73 -47 -67 -45 -37
-0 -0 -0 -0 -0 -0 -0 -0 -0 -0 -0 -0 -0 -0 -0 -0 -0 -0 -624 -602 -632 -543 -0 -0 -0 -0 -0 -0 -0 -39 -0 -21 -50 -41 -44 -61 -64 -74 -79 -63 -100 -86 -136 -73 -30
-0 -0 -0 -0 -0 -0 -0 -0 -0 -0 -0 -0 -0 -0 -0 -0 -0 -0 -747 -572 -568 -511 -0 -0 -0 -0 -0 -0 -0 -0 -148 -52 -49 -65 -66 -49 -60 -67 -69 -58 -101 -105 -97 -83 -45
-0 -0 -0 -0 -0 -0 -0 -0 -0 -0 -0 -0 -0 -0 -0 -0 -0 -237 -616 -607 -572 -0 -0 -0 -0 -0 -0 -0 -0 -68 -71 -99 -94 -86 -78 -66 -51 -62 -123 -139 -94 -0 -101 -51 -29
-0 -0 -0 -0 -0 -0 -0 -0 -0 -0 -0 -0 -0 -0 -0 -0 -0 -0 -0 -0 -0 -0 -0 -0 -0 -0 -0 -173 -71 -106 -98 -109 -92 -96 -111 -70 -85 -80 -0 -140 -157 -78 -80 -61 -76
-0 -0 -0 -0 -0 -0 -0 -0 -0 -0 -0 -0 -0 -0 -0 -0 -0 -0 -0 -0 -0 -0 -0 -0 -0 -0 -0 -118 -190 -121 -71 -88 -90 -86 -73 -74 -96 -124 -272 -213 -40 -122 -6 -52 -6
-0 -0 -0 -0 -0 -0 -0 -0 -0 -0 -0 -0 -0 -0 -0 -0 -0 -0 -0 -0 -0 -0 -0 -0 -0 -0 -0 -172 -24 -73 -58 -26 -93 -81 -99 -131 -89 -149 -204 -41 -0 -0 -1 -0 -73
-0 -0 -0 -0 -0 -0 -0 -0 -0 -0 -0 -0 -0 -0 -0 -0 -0 -0 -0 -0 -0 -0 -0 -0 -0 -0 -0 -67 -47 -147 -29 -69 -88 -102 -105 -114 -73 -135 -169 -111 -94 -116 -65 -73 -76
-0 -0 -0 -0 -0 -0 -0 -0 -0 -0 -0 -0 -0 -0 -0 -0 -0 -0 -0 -0 -0 -0 -0 -0 -0 -0 -0 -89 -21 -28 -72 -168 -49 -89 -128 -109 -89 -142 -159 -138 -105 -90 -98 -96 -115
-0 -0 -0 -0 -0 -0 -0 -0 -0 -0 -0 -0 -0 -0 -0 -0 -0 -0 -0 -0 -0 -0 -0 -0 -0 -0 -0 -0 -0 -33 -59 -102 -168 -162 -100 -93 -101 -116 -168 -157 -137 -128 -131 -135 -139
-0 -0 -0 -0 -0 -0 -0 -0 -0 -0 -0 -0 -0 -0 -0 -0 -0 -0 -0 -0 -0 -0 -0 -0 -0 -0 -0 -0 -0 -0 -0 -85 -0 -147 -86 -116 -91 -145 -177 -204 -238 -212 -190 -183 -170
-0 -0 -0 -0 -0 -0 -0 -0 -0 -0 -0 -0 -0 -0 -0 -0 -0 -0 -0 -0 -0 -0 -0 -0 -0 -0 -0 -0 -0 -0 -0 -15 -7 -166 -151 -121 -80 -155 -194 -206 -217 -238 -222 -220 -185
-0 -0 -0 -0 -0 -0 -0 -0 -0 -0 -0 -0 -0 -0 -0 -0 -0 -0 -0 -0 -0 -0 -0 -0 -0 -0 -0 -0 -0 -0 -0 -0 -85 -73 -33 -105 -15 -150 -136 -204 -240 -244 -250 -280 -274
-0 -0 -0 -0 -0 -0 -0 -0 -0 -0 -0 -0 -0 -0 -0 -0 -0 -0 -0 -0 -0 -0 -0 -0 -0 -0 -0 -0 -0 -0 -0 -0 -47 -61 -15 -84 -53 -33 -241 -190 -244 -284 -283 -280 -346
-0 -0 -0 -0 -0 -0 -0 -0 -0 -0 -0 -0 -0 -0 -0 -0 -0 -0 -0 -0 -0 -0 -0 -0 -0 -0 -0 -0 -0 -129 -18 -0 -0 -48 -45 -61 -60 -17 -127 -149 -158 -275 -305 -289 -317
-0 -0 -0 -0 -0 -0 -0 -0 -0 -0 -0 -0 -0 -0 -0 -0 -0 -0 -0 -0 -0 -0 -0 -0 -0 -0 -0 -0 -0 -0 -24 -2 -5 -32 -30 -0 -126 -68 -131 -194 -132 -203 -297 -308 -301
-0 -0 -0 -0 -0 -0 -0 -0 -0 -0 -0 -0 -0 -0 -0 -0 -0 -0 -0 -0 -0 -0 -0 -0 -0 -0 -0 -0 -0 -0 -0 -0 -0 -24 -22 -0 -12 -11 -18 -0 -264 -213 -247 -301 -317
-0 -0 -0 -0 -0 -0 -0 -0 -0 -0 -0 -0 -0 -0 -0 -0 -0 -0 -0 -0 -0 -0 -0 -0 -0 -0 -0 -0 -0 -0 -0 -0 -0 -0 -5 -0 -0 -0 -35 -24 -289 -254 -276 -320 -306
-0 -0 -0 -0 -0 -0 -0 -0 -0 -0 -0 -0 -0 -0 -0 -0 -0 -0 -0 -0 -0 -0 -0 -0 -0 -0 -0 -0 -0 -0 -0 -0 -0 -41 -0 -0 -0 -0 -0 -0 -307 -296 -308 -310 -291
-0 -0 -0 -0 -0 -0 -0 -0 -0 -0 -0 -0 -0 -0 -0 -0 -0 -0 -0 -0 -0 -0 -0 -0 -0 -0 -0 -0 -0 -0 -0 -0 -0 -0 -0 -0 -0 -0 -0 -151 -253 -246 -312 -314 -324
-0 -0 -0 -0 -0 -0 -0 -0 -0 -0 -0 -0 -0 -0 -0 -0 -0 -0 -0 -0 -0 -0 -0 -0 -0 -0 -0 -0 -0 -0 -0 -0 -0 -0 -0 -0 -0 -0 -0 -0 -12 -235 -295 -316 -290
-0 -0 -0 -0 -0 -0 -0 -0 -0 -0 -0 -0 -0 -0 -0 -0 -0 -0 -0 -0 -0 -0 -0 -0 -0 -0 -0 -0 -0 -0 -0 -0 -0 -0 -0 -0 -0 -0 -0 -0 -0 -228 -288 -339 -327
-0 -0 -0 -0 -0 -0 -0 -0 -0 -0 -0 -0 -0 -0 -0 -0 -0 -0 -0 -0 -0 -0 -0 -0 -0 -0 -0 -0 -0 -0 -0 -0 -0 -0 -0 -0 -0 -0 -0 -187 -318 -133 -224 -343 -380
-0 -0 -0 -0 -0 -0 -0 -0 -0 -3 -8 -0 -0 -0 -0 -0 -0 -0 -0 -0 -0 -0 -0 -0 -0 -0 -0 -0 -0 -0 -0 -0 -0 -0 -0 -0 -0 -0 -0 -0 -263 -236 -283 -363 -420
-0 -0 -0 -0 -0 -0 -0 -0 -0 -0 -0 -0 -0 -0 -0 -0 -0 -0 -0 -0 -0 -0 -0 -0 -0 -0 -0 -0 -0 -0 -0 -0 -0 -0 -0 -0 -0 -0 -0 -0 -0 -225 -267 -300 -292
-0 -0 -0 -0 -0 -0 -0 -0 -0 -2 -0 -0 -0 -0 -0 -0 -0 -0 -0 -0 -0 -0 -0 -0 -0 -0 -0 -0 -0 -0 -0 -0 -0 -0 -0 -0 -0 -0 -0 -0 -0 -0 -258 -266 -297
Wind_Speed
22 22 22 22 22 22 22 22 22 22 21 20 20 19 19 19 16 3 4 2 3 13 16 11 2 8 9 4 5 2 3 4 6 7 5 12 7 5 5 11 5 2 6 15 18
22 23 23 23 23 22 22 22 21 21 21 20 19 20 19 18 4 5 3 3 17 15 11 12 7 10 4 4 4 5 3 2 5 7 8 10 9 9 7 10 4 10 14 20 18
22 23 24 24 24 23 22 22 22 21 20 20 19 19 19 14 5 2 8 5 13 10 3 3 7 6 4 4 4 5 2 0 3 6 15 12 11 6 13 7 8 17 22 21 19
23 23 24 25 26 26 25 24 22 21 21 20 18 19 21 3 3 2 3 0 6 6 3 3 5 3 3 2 5 3 3 2 8 10 11 11 10 10 3 3 10 18 22 22 19
22 23 24 25 26 26 27 26 24 22 20 18 16 16 6 2 7 3 1 5 7 4 4 3 3 2 4 2 5 1 5 7 10 12 11 10 8 6 4 2 15 20 21 21 18
23 23 24 25 25 26 26 25 23 22 20 16 12 12 1 7 2 3 3 3 1 1 2 4 2 2 2 4 1 7 13 13 10 9 9 9 6 2 4 11 17 20 21 19 17
23 23 24 25 26 26 28 26 23 22 20 14 7 3 3 15 4 1 3 2 3 6 5 3 1 3 1 5 7 7 11 9 6 5 4 9 6 4 11 14 17 17 18 17 16
22 23 24 26 27 28 28 25 23 16 11 5 8 3 9 4 2 7 6 6 7 6 6 7 6 3 2 7 4 5 5 5 7 8 7 2 3 10 13 16 17 17 15 15 17
21 22 23 25 28 30 27 25 17 7 8 11 5 3 9 3 4 5 7 8 4 6 5 3 2 2 4 7 5 1 3 6 4 11 6 6 1 12 14 14 16 18 17 16 16
22 23 24 26 28 30 29 19 3 2 3 4 0 3 7 1 2 1 3 3 5 6 6 7 4 5 5 9 9 10 6 5 7 12 12 11 7 12 15 15 15 16 17 17 17
21 22 24 26 27 27 15 4 6 1 5 5 2 6 5 8 4 3 3 6 3 6 12 8 10 14 15 15 5 13 9 8 5 4 11 13 8 12 16 15 16 16 16 17 18
22 22 24 26 27 18 7 8 4 4 12 9 12 15 13 5 6 5 6 8 7 15 12 6 18 17 9 9 6 9 8 8 2 6 9 5 11 10 18 18 18 18 17 17 17
22 22 23 27 20 5 6 10 5 4 6 11 8 8 8 13 9 10 10 5 9 15 21 20 16 12 12 11 11 9 10 7 4 7 4 2 7 10 15 14 16 17 17 17 18
21 21 21 29 1 5 3 2 7 5 5 7 5 6 7 9 10 17 13 7 6 18 16 14 7 17 14 16 13 12 12 6 9 8 4 4 5 8 15 18 19 19 19 19 19
23 22 19 10 6 5 5 10 4 4 6 3 2 2 3 14 3 11 12 7 11 9 10 15 16 18 20 20 17 8 8 10 7 6 2 6 7 3 6 16 23 22 22 21 20
24 25 23 2 2 4 9 9 3 4 9 3 5 4 2 10 4 3 12 8 4 5 7 15 2 12 20 13 17 12 9 6 5 2 7 10 9 8 8 15 17 21 22 21 20
23 24 12 1 5 6 8 2 5 7 5 5 5 8 6 4 8 6 14 17 15 12 11 16 6 5 7 15 14 13 11 3 4 6 6 3 7 15 9 8 12 24 24 22 20
24 19 2 3 6 6 2 3 11 3 4 5 5 12 2 9 3 12 10 18 18 17 12 16 16 13 12 17 13 22 17 9 8 6 5 3 7 5 3 5 15 15 21 21 21
17 5 2 4 4 3 0 6 4 4 6 8 8 4 1 4 8 5 15 15 19 21 12 13 16 15 10 12 17 13 13 12 4 2 4 3 6 14 1 0 12 15 19 21 21
6 4 2 11 2 1 1 3 1 4 8 5 3 5 5 8 7 7 14 4 10 18 15 9 11 13 19 9 14 13 18 10 5 7 7 5 6 9 10 2 11 16 19 19 19
2 3 2 8 3 1 3 3 3 4 8 6 4 4 3 6 6 5 3 10 11 7 10 11 6 11 16 17 17 10 14 6 11 4 8 5 7 5 10 4 15 17 18 18 18
3 3 4 3 2 1 2 1 3 3 3 3 4 3 3 7 4 4 5 5 16 11 12 12 7 8 17 22 14 20 17 18 12 7 2 3 6 2 6 2 15 16 16 16 17
4 3 2 3 1 0 2 3 4 3 4 2 3 2 3 4 5 6 5 9 9 15 6 5 11 10 8 6 11 19 17 20 14 8 12 12 6 1 3 2 13 16 15 13 14
2 3 2 4 2 3 4 2 4 4 4 4 4 6 7 4 3 7 9 8 17 11 8 6 7 19 14 18 17 23 19 17 20 12 12 15 15 14 8 3 10 14 14 14 15
0 1 2 3 3 4 2 3 3 3 3 3 2 2 6 3 4 5 6 11 9 11 9 5 10 10 21 2 17 18 25 20 22 20 19 17 14 16 11 6 11 14 14 15 15
1 1 0 3 4 2 1 1 2 2 4 4 3 8 6 5 6 9 10 5 6 10 11 11 2 3 19 21 10 18 18 27 24 22 17 16 18 16 10 6 7 9 14 17 18
1 1 1 2 1 3 2 0 2 7 5 2 6 8 10 10 6 13 14 14 17 14 11 7 7 4 15 17 20 24 23 16 21 26 24 22 22 10 9 10 13 14 15 18 19
Wind_Direction
5 3 359 357 354 349 346 343 339 337 337 334 333 328 328 329 315 199 258 346 126 150 130 140 154 149 175 209 223 205 225 195 182 182 131 145 133 91 102 135 96 56 151 137 146
0 359 356 353 350 346 341 337 334 332 332 332 332 327 326 334 304 273 307 62 141 156 136 167 166 168 187 206 187 222 247 229 183 154 146 147 134 125 136 137 87 102 120 137 150
358 355 352 350 347 342 338 333 330 328 327 328 329 324 322 324 286 126 353 147 171 181 141 215 125 179 217 184 178 170 280 141 128 131 140 132 123 127 145 168 174 155 148 151 157
355 353 350 346 343 338 335 331 327 324 323 324 326 323 319 270 279 157 315 3 173 197 309 184 168 219 245 223 169 230 37 124 136 135 133 130 125 119 172 61 167 160 155 154 165
354 351 348 343 338 334 331 327 324 321 318 317 322 327 332 317 251 159 110 109 139 199 240 203 175 267 323 344 153 174 92 74 118 117 112 124 125 118 57 51 149 153 157 164 166
351 349 346 340 335 330 327 324 319 313 309 303 308 318 262 255 151 130 78 174 185 320 309 252 195 296 277 47 25 103 98 111 123 113 123 129 130 174 111 141 144 155 163 168 171
350 346 343 339 333 330 325 321 316 312 303 282 265 246 219 245 129 113 309 215 257 283 285 270 248 273 331 114 131 124 103 113 133 133 130 137 151 104 141 149 146 157 164 171 182
351 348 343 337 332 329 324 318 318 320 319 239 179 170 249 241 18 270 236 252 229 234 235 243 258 259 266 128 103 115 123 191 171 181 155 283 111 145 158 157 157 160 171 179 189
350 347 343 337 332 330 321 316 313 329 46 132 135 206 260 307 242 251 207 235 188 201 218 233 181 132 146 167 131 77 188 214 201 207 163 217 127 157 170 175 169 170 176 183 189
347 345 343 338 334 332 320 315 292 295 183 240 127 241 239 215 309 281 162 212 207 156 170 177 166 181 166 196 195 189 204 202 228 197 202 198 230 167 177 184 182 181 181 188 193
346 343 341 338 338 331 336 2 1 160 2 268 314 288 305 325 271 232 167 152 194 188 189 190 198 200 197 206 238 195 204 221 227 197 198 227 247 192 183 191 193 192 190 195 200
344 343 340 336 337 331 354 66 64 287 305 271 253 262 261 299 311 259 174 178 186 192 174 170 217 204 197 182 158 192 213 216 188 168 215 217 240 201 193 198 197 195 196 198 200
341 341 342 334 331 28 30 78 352 199 259 287 224 234 226 179 220 242 188 172 202 198 192 201 201 183 186 176 183 200 216 197 242 146 199 202 236 194 205 203 206 210 204 202 203
337 340 344 332 42 339 67 7 329 209 287 264 232 252 184 180 247 205 201 182 190 206 194 209 181 187 192 206 195 210 216 188 163 185 285 214 283 217 200 202 207 208 207 204 203
334 338 341 340 310 301 360 329 327 221 293 58 167 2 170 201 87 202 183 178 196 177 189 191 183 189 198 202 190 220 167 190 200 212 214 193 267 245 180 207 210 208 206 205 201
334 333 334 120 248 279 317 313 206 226 240 331 358 30 133 224 243 108 184 211 179 162 228 206 229 198 209 199 193 139 110 93 106 221 246 241 235 272 194 222 212 203 205 202 198
332 328 330 298 331 315 309 273 207 226 350 0 349 339 332 266 219 204 180 186 185 186 193 202 202 209 188 188 186 187 164 174 191 209 242 95 214 256 235 224 212 193 195 197 194
331 324 332 249 298 288 262 161 226 201 273 354 322 306 322 352 239 211 185 194 205 193 167 187 205 192 185 206 182 195 185 209 214 214 220 123 234 248 169 277 213 197 185 184 189
327 338 318 345 291 278 55 210 259 2 333 329 302 289 332 11 355 326 205 209 200 193 187 198 210 185 190 191 178 176 210 199 166 81 240 197 258 275 251 134 182 173 172 182 185
332 328 294 341 299 293 166 270 248 9 346 332 357 10 340 345 341 354 176 28 214 212 205 187 201 203 197 193 209 194 173 181 214 209 231 212 269 255 274 194 184 165 176 182 183
3 314 76 352 259 142 242 238 278 266 343 338 331 316 341 355 321 317 328 50 4 298 223 169 230 173 201 205 178 173 188 221 188 240 220 243 242 226 272 187 197 178 181 177 179
341 291 25 329 225 18 191 293 308 273 294 282 276 284 320 352 320 305 324 332 359 337 218 199 198 208 199 200 211 197 194 192 196 176 246 288 264 1 293 238 192 183 183 183 182
345 291 3 305 270 342 328 271 275 279 272 293 298 273 351 327 317 308 312 325 343 341 346 207 212 188 178 190 197 209 199 200 201 173 194 211 234 7 24 181 194 179 185 182 183
322 313 335 48 43 8 341 302 281 302 279 293 284 288 288 273 244 292 308 316 336 352 347 200 229 223 210 211 188 205 195 205 198 199 186 217 234 249 301 279 199 183 187 184 185
355 51 351 341 113 347 285 306 310 311 306 315 235 348 8 281 300 271 315 331 313 11 12 22 227 214 230 239 203 203 207 201 211 212 211 211 228 244 251 241 224 197 177 180 189
276 305 114 269 294 289 190 219 285 40 321 323 306 332 338 289 310 307 338 336 303 338 355 346 212 268 232 228 224 221 213 213 210 215 223 227 228 232 229 214 221 219 191 195 196
144 146 276 303 268 256 212 228 346 344 283 279 336 323 285 301 315 299 282 271 273 290 317 311 331 340 225 212 236 243 227 223 222 216 215 218 225 190 204 203 219 229 204 205 209